[[{"header":{"parameterUnit":"m.s-1","parameterCategory":1,"la1":30.2991,"la2":30.254,"lo1":-89.0895,"lo2":-89.0444,"dy":0.0017,"dx":0.0017,"nx":28,"ny":28,"refTime":"2024-06-20T09:00:00:Z","depth":0,"parameterNumber":2,"parameterNumberName":"U-component_of_WINDS"},"data":[0,0,0,0,0,0,0,0,0,0,0,0,0,0,0,0,0,0,0,0,0,0,0,0,0,0,0,0,0,0,0,0,0,0,0,0,0,0,0,0,0,0,0,0,0,0,0,0,0,0,0,0,0,0,0,0,0,0,-0.5274,-0.5273,0,-0.5213,-0.5212,-0.5212,-0.5105,-0.5103,-0.5101,-0.5099,-0.5039,-0.5039,-0.504,0,0,0,0,0,0,0,0,0,0,0,0,0,-0.53,-0.53,-0.5274,-0.5273,-0.5272,-0.5213,-0.5212,-0.5212,-0.5106,-0.5103,-0.5101,-0.5098,-0.5039,-0.5039,-0.504,0,0,0,0,0,0,0,0,0,0,0,0,0,-0.5269,-0.53,-0.5274,-0.5212,-0.5206,-0.5213,-0.5212,-0.5211,-0.5106,-0.5103,-0.51,-0.5097,-0.5039,-0.5039,-0.504,-0.5103,0,0,-0.5041,-0.5041,0,0,0,0,0,0,0,0,-0.5271,-0.5268,-0.5222,-0.5217,-0.521,-0.5164,-0.5199,-0.5175,-0.5107,-0.5144,-0.5099,-0.5096,-0.5083,-0.508,-0.5075,-0.51,-0.5098,-0.5041,-0.5041,-0.5042,-0.5042,0,0,0,0,0,0,0,-0.5273,-0.527,-0.525,-0.5222,-0.5214,-0.5188,-0.5181,-0.5194,-0.5132,-0.5141,-0.5133,-0.5127,-0.5079,-0.5075,-0.5073,-0.5097,-0.5041,-0.5042,-0.5042,-0.5042,-0.5172,-0.5175,0,0,0,0,0,0,-0.5284,-0.5273,-0.5252,-0.5248,-0.5233,-0.519,-0.5182,-0.5182,-0.5131,-0.512,-0.513,-0.5122,-0.5076,-0.5073,-0.507,-0.5142,-0.5042,-0.5042,-0.5042,-0.5168,-0.5172,-0.5176,0,0,0,0,0,0,-0.5285,-0.5283,-0.5254,-0.5258,-0.5253,-0.5193,-0.5194,-0.5182,-0.5177,-0.5123,-0.5111,-0.5137,-0.5073,-0.507,-0.5096,-0.5138,-0.5042,-0.5043,-0.5165,-0.517,-0.5174,-0.5285,0,0,0,0,0,0,-0.5286,-0.5284,-0.5307,-0.5259,-0.5253,-0.528,-0.5196,-0.5183,-0.5178,-0.5168,-0.5126,-0.5116,-0.5071,-0.5096,-0.5096,-0.5137,-0.5043,-0.5161,-0.5167,-0.5172,-0.5277,-0.5293,-0.5306,0,0,0,0,0,-0.5288,-0.5341,-0.5309,-0.5307,-0.528,-0.5283,-0.5279,-0.5225,-0.5182,-0.5205,-0.517,-0.5118,-0.5133,-0.5099,-0.5099,-0.5141,-0.5158,-0.5165,-0.5172,-0.5271,-0.529,-0.5306,0,0,0,0,0,0,-0.5396,-0.5334,-0.5297,-0.5337,-0.5316,-0.5265,-0.5292,-0.5247,-0.5238,-0.5229,-0.5162,-0.5154,-0.5189,-0.5167,-0.513,-0.5199,-0.5137,-0.5145,-0.5213,-0.523,-0.5245,-0.525,-0.5043,0,0,0,0,0,-0.5424,-0.5431,-0.5377,-0.5417,-0.5408,-0.5353,-0.5352,-0.5312,-0.5288,-0.5278,-0.5245,-0.5224,-0.5224,-0.5226,-0.5223,-0.5273,-0.5263,-0.5302,-0.5316,-0.5329,-0.5336,-0.5362,-0.5379,-0.5199,-0.5199,-0.5199,0,0,-0.5484,-0.545,-0.5459,-0.5438,-0.5417,-0.5427,-0.5346,-0.5359,-0.5366,-0.528,-0.5303,-0.5278,-0.525,-0.5289,-0.5305,-0.5272,-0.5384,-0.5338,-0.5348,-0.5349,-0.5371,-0.5389,-0.5404,-0.5204,-0.5203,-0.5203,0,0,-0.5596,-0.5571,-0.5602,-0.5583,-0.5552,-0.5515,-0.5522,-0.5478,-0.5458,-0.548,-0.5416,-0.5423,-0.5425,-0.5408,-0.54,-0.5506,-0.5459,-0.5507,-0.5584,-0.561,-0.5624,-0.5636,-0.5676,-0.569,-0.5515,-0.5515,-0.5515,0,-0.5674,-0.5684,-0.5624,-0.5642,-0.5635,-0.5557,-0.5589,-0.5573,-0.5544,-0.5541,-0.5505,-0.5506,-0.5481,-0.5516,-0.5542,-0.5537,-0.5545,-0.5512,-0.5627,-0.5639,-0.5649,-0.5686,-0.5701,-0.5521,-0.5521,-0.552,-0.5519,0,-0.5782,-0.5791,-0.5819,-0.5792,-0.5789,-0.5813,-0.5758,-0.5761,-0.5721,-0.5688,-0.5712,-0.568,-0.567,-0.5675,-0.5636,-0.5704,-0.5685,-0.5639,-0.5575,-0.5674,-0.5707,-0.572,-0.553,-0.5528,-0.5526,-0.5525,0,0,-0.5961,-0.59,-0.5912,-0.5899,-0.586,-0.5866,-0.5887,-0.5876,-0.5881,-0.5864,-0.5881,-0.5884,-0.5841,-0.5832,-0.5791,-0.5814,-0.5902,-0.5765,-0.5763,-0.5792,-0.5976,-0.6012,-0.6029,-0.5869,-0.5872,-0.5874,-0.5979,0,-0.6066,-0.6099,-0.6045,-0.6091,-0.6099,-0.6025,-0.6044,-0.6023,-0.5992,-0.5995,-0.5961,-0.5965,-0.5908,-0.5902,-0.5921,-0.5887,-0.5938,-0.5878,-0.5886,-0.5887,-0.5896,-0.6046,-0.6084,-0.6184,-0.5991,-0.5993,-0.5995,0,-0.6193,-0.6181,-0.6228,-0.6186,-0.6187,-0.6205,-0.6191,-0.6194,-0.6169,-0.6145,-0.6135,-0.6086,-0.6105,-0.6043,-0.6069,-0.603,-0.603,-0.6013,-0.6016,-0.6015,-0.5948,-0.6051,-0.6215,-0.6231,-0.6014,-0.6013,-0.6011,0,-0.6321,-0.6317,-0.6344,-0.6335,-0.6286,-0.6301,-0.6281,-0.6252,-0.625,-0.6238,-0.6236,-0.6227,-0.6222,-0.6217,-0.6167,-0.6126,-0.62,-0.6133,-0.6182,-0.6183,-0.6201,-0.6201,-0.6369,-0.6199,-0.6199,-0.6199,-0.6199,0,-0.6444,-0.6476,-0.64,-0.6418,-0.6451,-0.6389,-0.6424,-0.6398,-0.6373,-0.6384,-0.632,-0.6332,-0.6265,-0.627,-0.6231,-0.6259,-0.6257,-0.624,-0.6229,-0.6246,-0.6249,-0.6246,-0.6238,-0.6203,-0.6202,-0.6201,-0.6201,0,-0.6593,-0.6544,-0.6569,-0.6521,-0.651,-0.6537,-0.6496,-0.651,-0.6475,-0.649,-0.649,-0.6436,-0.6439,-0.6389,-0.6381,-0.6355,-0.6401,-0.6378,-0.641,-0.6403,-0.6455,-0.6451,-0.6628,-0.6649,-0.6465,-0.6467,-0.6469,0,-0.6676,-0.6698,-0.6653,-0.6655,-0.6639,-0.6644,-0.6641,-0.6581,-0.6581,-0.6553,-0.6572,-0.6569,-0.6563,-0.6571,-0.6532,-0.6526,-0.6503,-0.6565,-0.6502,-0.6519,-0.6506,-0.6506,-0.6508,-0.6579,-0.6582,-0.6583,-0.6585,0,-0.6828,-0.6803,-0.68,-0.679,-0.6788,-0.6777,-0.6761,-0.6767,-0.6702,-0.6705,-0.6707,-0.6703,-0.6696,-0.6694,-0.6681,-0.6662,-0.6614,-0.6605,-0.6616,-0.6634,-0.6653,-0.6645,-0.6448,-0.6602,-0.66,-0.6599,-0.6598,-0.6597,-0.6947,-0.6964,-0.6935,-0.6934,-0.6917,-0.6904,-0.6915,-0.6882,-0.6882,-0.6871,-0.6836,-0.6844,-0.6818,-0.6796,-0.6781,-0.6787,-0.6757,-0.6772,-0.6777,-0.6782,-0.6792,-0.6651,-0.6784,-0.6784,-0.6783,-0.6783,-0.6782,0,-0.7097,-0.7074,-0.7075,-0.7055,-0.7056,-0.7009,-0.699,-0.6993,-0.7001,-0.6981,-0.6977,-0.698,-0.6978,-0.6939,-0.6933,-0.6945,-0.6923,-0.6946,-0.6945,-0.6942,-0.6819,-0.6811,-0.6964,-0.6964,-0.6964,-0.6964,-0.6964,-0.6964,-0.7175,-0.7202,-0.7173,-0.719,-0.7167,-0.7174,-0.7168,-0.7156,-0.714,-0.7146,-0.7144,-0.7118,-0.709,-0.7082,-0.7079,-0.7067,-0.7068,-0.7099,-0.7081,-0.6967,-0.695,-0.6933,-0.6925,-0.71,-0.71,-0.7203,-0.7204,-0.7204]},{"header":{"parameterUnit":"m.s-1","parameterCategory":1,"la1":30.2991,"la2":30.254,"lo1":-89.0895,"lo2":-89.0444,"dy":0.0017,"dx":0.0017,"nx":28,"ny":28,"refTime":"2024-06-20T09:00:00:Z","depth":0,"parameterNumber":3,"parameterNumberName":"V-component_of_WINDS"},"data":[0,0,0,0,0,0,0,0,0,0,0,0,0,0,0,0,0,0,0,0,0,0,0,0,0,0,0,0,0,0,0,0,0,0,0,0,0,0,0,0,0,0,0,0,0,0,0,0,0,0,0,0,0,0,0,0,0,0,1.6514,1.6514,0,1.6517,1.6517,1.6517,1.6495,1.6494,1.6494,1.6493,1.6495,1.6496,1.6497,0,0,0,0,0,0,0,0,0,0,0,0,0,1.649,1.649,1.6514,1.6514,1.6514,1.6517,1.6517,1.6517,1.6495,1.6494,1.6494,1.6493,1.6495,1.6496,1.6497,0,0,0,0,0,0,0,0,0,0,0,0,0,1.6497,1.649,1.6514,1.6504,1.6503,1.6517,1.6517,1.6517,1.6495,1.6494,1.6493,1.6493,1.6495,1.6496,1.6497,1.6521,0,0,1.65,1.65,0,0,0,0,0,0,0,0,1.6497,1.6498,1.6505,1.6504,1.6503,1.6505,1.6509,1.6518,1.6495,1.6498,1.6493,1.6492,1.6499,1.65,1.6502,1.6521,1.6521,1.65,1.65,1.6501,1.6501,0,0,0,0,0,0,0,1.6496,1.6498,1.6515,1.6505,1.6504,1.6499,1.6499,1.6511,1.6504,1.6498,1.6496,1.6497,1.6499,1.6501,1.6502,1.6521,1.65,1.6501,1.6501,1.6502,1.656,1.6561,0,0,0,0,0,0,1.6497,1.6497,1.6515,1.6515,1.6498,1.65,1.65,1.6505,1.6503,1.6502,1.6498,1.6496,1.65,1.6501,1.6502,1.653,1.6501,1.6502,1.6502,1.6559,1.656,1.6561,0,0,0,0,0,0,1.6497,1.6499,1.6515,1.6506,1.6507,1.6501,1.6507,1.6506,1.6508,1.6503,1.6502,1.6502,1.65,1.6501,1.6516,1.653,1.6502,1.6503,1.6558,1.6559,1.6561,1.6586,0,0,0,0,0,0,1.6496,1.6499,1.6508,1.6506,1.6508,1.6529,1.6508,1.6506,1.651,1.6508,1.6507,1.6506,1.6499,1.6515,1.6517,1.653,1.6504,1.6557,1.6558,1.656,1.6584,1.6588,1.6592,0,0,0,0,0,1.6495,1.6515,1.6508,1.6511,1.6519,1.653,1.6531,1.6523,1.6511,1.652,1.6517,1.6506,1.6528,1.6517,1.6519,1.6533,1.6556,1.6558,1.656,1.6582,1.6587,1.6591,0,0,0,0,0,0,1.6518,1.6514,1.6507,1.6527,1.6529,1.6526,1.6537,1.6528,1.6534,1.6531,1.6521,1.6521,1.6538,1.6537,1.6525,1.6556,1.654,1.6543,1.6556,1.6561,1.6564,1.6564,1.6504,0,0,0,0,0,1.6525,1.6534,1.6531,1.6548,1.655,1.6544,1.6548,1.6541,1.6543,1.6544,1.6542,1.6544,1.6551,1.6556,1.6562,1.6584,1.6583,1.6594,1.6598,1.6602,1.6604,1.6615,1.662,1.6568,1.6568,1.6568,0,0,1.654,1.6539,1.6546,1.6553,1.6554,1.6563,1.6544,1.6555,1.6562,1.6545,1.656,1.6559,1.656,1.6579,1.6587,1.6578,1.6618,1.6604,1.6607,1.6607,1.6618,1.6622,1.6627,1.657,1.657,1.6569,0,0,1.6572,1.6573,1.6587,1.6589,1.659,1.6586,1.659,1.6589,1.6587,1.6602,1.6589,1.6598,1.6611,1.6612,1.6614,1.6648,1.6638,1.6651,1.6671,1.6681,1.6685,1.6689,1.67,1.6705,1.6653,1.6653,1.6653,0,1.659,1.6604,1.6596,1.6608,1.6611,1.6597,1.6611,1.6613,1.6617,1.662,1.6611,1.6627,1.6627,1.6645,1.6654,1.6656,1.666,1.665,1.6686,1.6689,1.6692,1.6703,1.6707,1.6655,1.6654,1.6654,1.6654,0,1.6626,1.6636,1.6648,1.6652,1.6657,1.667,1.6664,1.667,1.6663,1.666,1.6675,1.6675,1.6681,1.6685,1.6679,1.6703,1.6698,1.6688,1.6671,1.6699,1.6708,1.6713,1.6657,1.6656,1.6656,1.6655,0,0,1.6671,1.6671,1.6675,1.6677,1.6678,1.6686,1.6699,1.6705,1.671,1.6714,1.6723,1.6735,1.6726,1.6729,1.6723,1.6732,1.6758,1.6721,1.672,1.6727,1.6784,1.6791,1.6796,1.6752,1.6753,1.6753,1.6784,0,1.6702,1.6723,1.6716,1.6738,1.6747,1.6734,1.6745,1.6747,1.6745,1.6752,1.675,1.6758,1.6745,1.6747,1.6756,1.6753,1.6769,1.6751,1.6761,1.6761,1.6759,1.6801,1.6809,1.6837,1.6788,1.6788,1.6789,0,1.674,1.6745,1.6768,1.6767,1.6771,1.6781,1.6786,1.6794,1.6796,1.6793,1.6797,1.6789,1.6801,1.6786,1.6802,1.679,1.6794,1.6793,1.6794,1.6794,1.6776,1.6801,1.6847,1.685,1.6795,1.6794,1.6794,0,1.6769,1.6782,1.6797,1.6799,1.68,1.6807,1.6807,1.6809,1.6813,1.6818,1.682,1.6827,1.683,1.6835,1.6829,1.6818,1.6846,1.683,1.6844,1.6844,1.6849,1.6849,1.6895,1.6854,1.6854,1.6854,1.6854,0,1.6803,1.6818,1.681,1.6819,1.6835,1.6828,1.6843,1.6842,1.6844,1.6852,1.6842,1.685,1.6842,1.685,1.6845,1.686,1.6861,1.6859,1.6858,1.686,1.686,1.6861,1.6858,1.6855,1.6855,1.6854,1.6854,0,1.6838,1.6834,1.685,1.6849,1.685,1.6861,1.686,1.6869,1.6866,1.6877,1.688,1.6875,1.6884,1.6879,1.6887,1.6884,1.6902,1.6899,1.6902,1.69,1.6914,1.6913,1.6962,1.6967,1.6924,1.6924,1.6924,0,1.686,1.687,1.6871,1.6877,1.6878,1.6887,1.6891,1.6884,1.6889,1.6893,1.6901,1.6909,1.6914,1.6928,1.6926,1.6933,1.6928,1.6945,1.6929,1.6931,1.6927,1.6926,1.6927,1.6948,1.6948,1.6949,1.6949,0,1.6898,1.6896,1.6903,1.6909,1.6915,1.692,1.6923,1.6928,1.6922,1.6928,1.6937,1.6941,1.695,1.6958,1.6963,1.6964,1.6955,1.6954,1.6958,1.6959,1.696,1.6959,1.6909,1.6953,1.6953,1.6952,1.6952,1.6952,1.6926,1.6935,1.6937,1.6946,1.6948,1.6952,1.696,1.6958,1.6966,1.6972,1.6968,1.6978,1.698,1.6987,1.6989,1.6996,1.699,1.6995,1.6996,1.6997,1.6998,1.696,1.6998,1.6998,1.6997,1.6997,1.6997,0,1.6964,1.6965,1.6972,1.6978,1.6985,1.6977,1.6981,1.6986,1.6996,1.6999,1.7004,1.7014,1.7022,1.7021,1.7027,1.7034,1.703,1.7036,1.7035,1.7035,1.7005,1.7001,1.7039,1.7039,1.7039,1.7039,1.7039,1.7039,1.6984,1.6998,1.6996,1.7011,1.7012,1.7022,1.7025,1.7029,1.7031,1.7043,1.7049,1.7048,1.7049,1.7056,1.7063,1.7062,1.7064,1.7071,1.7069,1.7041,1.7037,1.7033,1.7029,1.7072,1.7072,1.7098,1.7099,1.7099]}]]